Location: Newark
(47.5500°N, 8.6167°E)
Time: 11:03:48
(UTC+00:00)

Envisat - Pass Details

Date: 26 January 2020
Orbit: 764 x 766 km, 98.1° (Epoch: 20 February)

Event Time Altitude Azimuth Distance (km) Brightness Sun altitude
Rises 18:31:38 0° 210° (SSW) 3,222 6.7 -22.6°
Reaches altitude 10° 18:34:43 10° 230° (SW) 2,301 6.2 -23.1°
Maximum altitude 18:38:01 17° 271° (W) 1,853 5.9 -23.7°
Drops below altitude 10° 18:41:20 10° 312° (NW) 2,312 6.1 -24.3°
Sets 18:44:27 0° 332° (NNW) 3,244 6.6 -24.8°
